Find Starlink 11697

NORAD ID: 63553 Int'l Des: 2025-075 Owner: SPXS Country: US Constellation: starlink operational
LEOCIRCULAR

Live-Position

3D-Globus wird geladen...

Über Starlink 11697

Beschreibung wird geladen...

Nächste Überflüge

Passes for default location (London). Set your location on the main map for personalized predictions.

Höhenverlauf

Loading altitude history...

Zweizeiliger Elementsatz

1 63553U 25075F 26124.21493272 .00176767 00000-0 13517-2 0 9999
2 63553 42.9988 178.9025 0003362 294.0257 66.0258 15.70842130 61981
Epoch: 4. Mai 2026 • Age: 11 hours

Aktueller Status

Höhe 357.4 km
Geschwindigkeit 7.70 km/s
Subsatellitenpunkt -5.67°S, 110.04°W
Startdatum 13. Apr. 2025
Alter 1 years
Typ internet

Technische Details

Klassifizierung Payload
Masse 960.00 kg
Trockenmasse 910.00 kg
Gesamtmasse 960.00 kg
Länge 0.30 m
Durchmesser 4.10 m
Spannweite 29.00 m
Form Box + pan
Hersteller SPXS
Bus-Typ Starlink V2MD
Phasenstatus In Orbit
Besitzer/Staat SPXS/US

Most Searched